Theta_e
338 338 342 341 344 338 345 341 346 345 343 340 339 341 344 344 344 345 344 343 343 342 342 342 342 343 343 344 345 346 346 347
337 339 338 341 339 344 343 350 347 345 345 344 346 345 346 345 345 345 342 342 343 343 343 343 342 342 343 344 344 345 346 347
339 340 342 342 343 339 340 340 345 345 341 343 343 344 346 345 344 342 339 340 342 343 343 343 343 343 344 344 345 345 347 347
340 328 335 340 342 342 344 347 341 343 340 337 341 341 343 343 341 339 339 340 342 343 344 344 345 345 345 345 346 347 347 347
332 337 337 340 340 339 338 340 345 341 341 336 336 339 341 341 342 340 340 341 342 343 344 344 345 346 346 346 347 348 348 348
337 338 338 340 340 339 341 343 344 340 342 340 339 341 340 340 346 348 343 342 343 343 344 345 346 346 347 347 348 348 349 350
332 331 337 337 339 339 341 342 342 341 340 341 341 342 342 346 352 353 350 348 345 344 345 346 347 348 349 351 353 355 356 356
330 328 330 332 333 338 339 338 338 341 341 339 339 345 348 351 353 354 355 351 346 347 347 348 350 352 355 357 357 357 355 352
332 330 330 332 334 339 340 339 340 342 341 347 348 344 348 353 354 355 354 349 347 349 350 352 356 358 355 351 346 344 339 331
332 334 333 332 333 336 339 340 338 342 344 346 346 345 351 354 355 354 349 349 350 353 356 358 354 347 340 339 338 331 330 330
331 334 334 334 335 336 339 341 338 341 349 351 353 354 356 356 357 351 352 352 354 357 355 343 337 337 335 331 330 331 329 325
333 331 334 333 336 335 335 336 337 345 352 354 351 348 351 357 356 353 354 355 355 344 334 334 335 332 329 332 332 328 325 324
331 331 332 334 333 335 339 340 337 345 351 352 350 347 353 355 355 353 354 353 337 331 331 331 330 330 333 333 330 326 324 324
332 334 335 334 334 337 342 338 340 346 352 352 350 347 351 355 355 355 352 335 330 329 329 328 329 332 332 332 330 325 325 325
332 331 339 334 336 332 337 339 344 348 351 352 352 354 352 354 355 353 339 330 329 328 327 328 331 333 332 331 329 324 325 325
332 333 332 332 335 333 333 335 337 343 349 351 354 355 355 355 354 345 333 330 328 328 327 329 332 334 333 329 326 324 325 326
336 333 331 332 335 335 338 337 342 350 346 348 347 354 352 354 350 337 331 330 328 327 328 330 333 335 333 328 325 324 326 330
333 335 334 334 332 335 337 338 342 348 351 353 346 349 353 353 346 332 329 329 328 328 328 331 333 335 334 330 325 326 329 332
338 330 331 333 333 335 337 341 341 342 343 348 349 347 351 350 336 331 330 328 328 328 329 332 333 335 333 331 326 328 332 333
Wind_Speed
4 5 9 6 5 2 6 2 3 3 4 2 5 9 10 10 7 7 7 7 7 9 10 14 16 14 12 11 15 16 15 15
6 7 8 3 12 4 1 6 3 3 2 6 12 13 9 8 9 3 3 5 7 6 6 8 11 11 11 10 12 14 15 18
8 9 11 5 5 5 1 3 3 5 3 6 13 11 10 9 6 3 5 7 8 8 6 5 4 5 6 6 6 6 9 12
4 2 4 4 7 10 4 4 2 1 6 4 9 10 10 10 8 8 9 10 10 10 9 7 6 5 5 5 4 4 4 5
6 3 3 6 5 5 4 3 5 7 9 2 5 6 7 12 11 11 13 14 14 13 12 10 8 8 8 7 6 5 4 4
11 9 6 5 6 9 12 6 6 7 12 10 9 11 11 13 13 14 15 16 15 14 13 11 10 8 6 5 4 3 4 5
14 6 6 5 7 14 15 11 12 12 18 18 14 14 17 16 17 17 17 15 15 15 14 12 10 8 6 4 4 3 2 2
19 8 10 13 9 12 11 5 2 13 13 8 10 11 15 18 20 20 18 17 16 16 16 14 11 8 8 9 7 6 4 3
15 8 10 11 15 15 13 10 8 9 10 12 9 15 21 22 22 22 22 20 19 18 16 14 12 10 9 8 8 7 7 8
10 9 12 13 11 15 19 16 13 4 9 18 16 14 18 18 22 24 25 23 22 20 18 15 12 11 10 10 10 9 9 9
7 12 2 6 5 10 11 15 18 13 12 11 18 18 10 16 19 23 24 24 22 19 16 14 14 13 12 13 12 11 12 12
4 13 15 9 13 13 11 12 18 22 20 23 22 10 9 22 24 26 26 24 23 19 18 17 17 16 15 16 14 14 14 14
7 10 10 10 11 16 11 7 27 30 32 31 15 8 25 31 28 29 28 26 22 20 19 19 20 19 17 16 15 14 15 15
7 8 12 15 12 13 10 3 27 29 34 36 16 19 37 36 37 35 32 28 25 24 22 21 19 18 16 15 15 15 15 14
13 8 2 16 17 28 15 13 21 30 32 33 26 34 43 44 41 37 34 31 28 25 24 22 20 16 15 15 15 16 15 14
7 13 9 18 18 26 32 29 30 31 37 36 34 38 42 42 42 39 36 34 30 27 25 24 22 18 13 15 17 16 15 14
10 3 20 16 25 19 21 18 20 24 40 44 42 42 50 43 42 41 38 35 30 27 26 25 23 20 17 16 18 17 15 14
10 15 19 20 36 24 22 25 29 37 33 30 47 50 48 49 46 46 42 36 32 29 26 26 23 21 19 17 18 17 16 13
5 18 19 21 34 27 25 28 27 37 45 46 42 49 51 51 49 46 41 36 33 30 27 26 23 21 19 18 19 16 14 12
Wind_Direction
171 140 159 157 201 80 109 79 212 165 240 288 155 179 192 210 231 236 221 248 224 226 234 243 247 252 258 257 252 249 250 254
123 126 55 218 142 171 103 168 173 151 218 140 155 162 176 199 216 220 193 197 176 186 208 235 243 247 251 256 257 257 254 255
157 208 174 149 171 69 109 287 154 158 159 183 162 166 177 188 187 140 159 160 151 151 161 187 210 229 233 244 250 245 241 250
165 86 227 190 171 191 228 187 90 129 143 173 178 175 178 153 136 130 133 136 141 141 141 144 151 163 163 168 184 198 219 242
154 162 140 202 182 173 132 132 200 162 162 144 195 186 169 145 133 134 135 135 137 140 144 149 152 153 152 158 163 172 187 232
207 211 149 181 194 198 209 215 185 181 154 178 178 182 171 147 139 137 140 141 145 148 152 155 151 145 154 163 169 194 217 238
231 191 181 212 191 186 207 218 204 164 168 182 181 188 183 159 148 145 145 147 152 156 155 151 145 136 129 118 111 113 133 145
232 199 235 245 240 209 203 213 142 170 163 170 166 155 162 165 158 154 153 156 160 153 149 148 142 130 120 121 118 111 106 92
226 204 219 249 232 197 202 196 171 168 184 158 171 183 180 171 168 164 160 160 158 151 149 144 137 128 121 114 105 103 97 92
210 162 218 236 248 211 207 203 208 138 173 174 180 177 171 175 170 164 163 158 155 153 150 145 139 135 128 119 113 108 103 94
208 211 274 241 195 179 188 218 201 193 157 151 137 131 140 169 170 168 162 155 152 151 150 145 141 137 137 129 124 121 113 107
172 215 219 217 208 218 201 249 189 178 165 156 154 172 177 168 164 161 158 155 154 152 149 148 144 143 142 135 131 125 117 110
214 220 224 197 209 148 186 236 174 184 173 165 174 206 165 159 160 162 160 160 156 153 151 150 146 145 141 132 132 127 122 117
202 209 233 177 148 180 204 195 178 180 178 178 161 150 153 157 160 164 163 160 161 157 153 150 148 148 145 142 139 134 130 124
200 199 262 188 183 211 213 193 186 183 180 170 155 157 159 161 164 167 166 165 164 160 156 155 154 156 155 151 148 145 139 133
158 207 223 219 208 213 218 221 211 193 177 173 161 162 160 162 164 168 169 168 164 164 164 162 160 159 165 158 154 151 148 144
187 186 211 233 221 210 217 216 201 183 182 177 170 166 166 166 167 170 172 169 168 170 170 167 166 166 165 165 161 158 158 155
196 183 182 214 224 215 204 203 195 174 169 178 179 173 170 171 174 174 173 169 170 173 174 173 170 168 167 170 169 168 165 164
286 183 190 209 215 200 206 203 200 198 191 178 177 181 177 175 179 176 172 171 174 174 176 175 173 173 172 172 171 173 178 173